Location: ????????
(56.1167°N, 38.6333°E)
Time: 11:28:21
(UTC+00:00)

Cosmos 1346 Rocket - Pass Details

Date: 18 November 2025
Orbit: 479 x 490 km, 81.2° (Epoch: 10 December)

Event Time Altitude Azimuth Distance (km) Brightness Sun altitude
Rises 15:58:37 0° 344° (NNW) 2,592 6.4 -22.6°
Reaches altitude 10° 16:00:45 10° 342° (NNW) 1,705 5.5 -22.9°
Enters shadow 16:03:53 58° 320° (NW) 583 3.0 -23.4°
